Orbital Elements at Epoch 2459200.5 (2020-Dec-17.0) TDB
Reference: JPL 24 (heliocentric ecliptic J2000)
Element | Value | Uncertainty (1-sigma) | Units |
e | .14367001598236 | 3.4772e-08 | |
a | 2.383524572034462 | 8.6541e-09 | au |
q | 2.041083558675923 | 8.566e-08 | au |
i | 5.709473350175085 | 3.759e-06 | deg |
node | 346.9388436687254 | 3.3229e-05 | deg |
peri | 354.6662547317961 | 3.5698e-05 | deg |
M | 302.6654071859658 | 1.5151e-05 | deg |
tp | 2459414.563247073957 (2021-Jul-19.06324707) | 5.7197e-05 | TDB |
period | 1344.088536506731 3.68 | 7.3202e-06 2.004e-08 | d yr |
n | .2678394988291735 | 1.4587e-09 | deg/d |
Q | 2.725965585393001 | 9.8975e-09 | au |
|
| | Orbit Determination Parameters
Additional Information
|